sat.trackr.live / text

‹ back to catalog

LEMUR-2-DELOITTE-3

NORAD 68471 · 2026-067BH

PAYLOAD ACTIVE UNKNOWN

§ Identity

Operator
Country
US
Launch date
2026-03-30
Launch site
AFWTR
Launch vehicle
Mass (kg)
RCS (m²)

External: N2YO · Heavens-Above · Gunter

§ Orbital elements

Epoch: 2026-09-20T02:44:38.989824Z

Period
96.50 min
Inclination
97.7675°
Eccentricity
0.0005593
Mean motion
14.92229324 rev/d
Perigee alt
587.1 km
Apogee alt
594.9 km
Semi-major
6,969.1 km
B*
2.8598e-4
RAAN
219.8569°
Arg perigee
91.6300°
Mean anomaly
268.5560°
Rev number
2,588

§ Raw data

LEMUR-2-DELOITTE-31 68471U 26067BH  26263.11434016  .00002860  00000+0  28598-3 0  99962 68471  97.7675 219.8569 0005593  91.6300 268.5560 14.92229324 25883

JSON: /api/v1/satellites/68471 · /tle

For live sub-satellite position, see the globe view (requires WebGL).

§ Visibility from observer

Set your observer location to see the next 7 days of passes ≥ 10°. The values pass through the URL so the page stays shareable.

No JS? Fill the form by hand. The geolocation button needs JavaScript.